This is the latest recevied weather packets stored in our database for station/object N7WSS. If no packets are shown the sender has not sent any weather packets the latest 10 day(s).
| Time | Temp. | Humidity | Pressure | Rain* | Wind** | Luminosity | Snow |
|---|---|---|---|---|---|---|---|
| 1777308160 | 21.11° C | 28% | 1012.4 hPa | 0 mm | - | - | - |
| 1777307856 | 21.67° C | 29% | 1012.5 hPa | 0 mm | - | - | - |
| 1777307554 | 20.56° C | 29% | 1012.4 hPa | 0 mm | - | - | - |
| 1777307250 | 21.11° C | 30% | 1012.5 hPa | 0 mm | - | - | - |
| 1777306948 | 20.56° C | 30% | 1012.6 hPa | 0 mm | - | - | - |
| 1777306645 | 20° C | 31% | 1012.6 hPa | 0 mm | - | - | - |
| 1777306341 | 20° C | 31% | 1012.5 hPa | 0 mm | - | - | - |
| 1777306035 | 19.44° C | 32% | 1012.4 hPa | 0 mm | - | - | - |
| 1777305733 | 20° C | 32% | 1012.7 hPa | 0 mm | - | - | - |
| 1777305428 | 19.44° C | 32% | 1012.5 hPa | 0 mm | - | - | - |
| 1777305123 | 19.44° C | 33% | 1012.6 hPa | 0 mm | - | - | - |
| 1777304817 | 19.44° C | 32% | 1012.5 hPa | 0 mm | - | - | - |
| 1777304515 | 19.44° C | 33% | 1012.4 hPa | 0 mm | - | - | - |
| 1777304213 | 19.44° C | 32% | 1012.5 hPa | 0 mm | - | - | - |
| 1777303909 | 19.44° C | 32% | 1012.6 hPa | 0 mm | - | - | - |
| 1777303606 | 19.44° C | 32% | 1012.5 hPa | 0 mm | - | - | - |
| 1777303304 | 18.33° C | 33% | 1012.1 hPa | 0 mm | - | - | - |
| 1777303001 | 18.33° C | 34% | 1012.4 hPa | 0 mm | - | - | - |
| 1777302697 | 18.89° C | 33% | 1012.1 hPa | 0 mm | - | - | - |
| 1777302396 | 18.33° C | 34% | 1012.6 hPa | 0 mm | - | - | - |
| 1777302094 | 18.33° C | 34% | 1012.4 hPa | 0 mm | - | - | - |
| 1777301792 | 17.22° C | 36% | 1012.4 hPa | 0 mm | - | - | - |
| 1777301489 | 16.67° C | 36% | 1012.4 hPa | 0 mm | - | - | - |
| 1777301186 | 17.22° C | 36% | 1012.4 hPa | 0 mm | - | - | - |
| 1777300883 | 16.67° C | 36% | 1012.4 hPa | 0 mm | - | - | - |
* Rain latest hour (hover to see other rain measurements)
** Current wind speed in m/s (hover to see current wind gust speed)